Terug naar catalogus

STARLINK-32670

ActiefCommunicatieVLEO
NORAD 62210·PAYLOAD·🇺🇸 United States

Gelanceerd Dec 4, 2024 vanaf Cape Canaveral Space Force Station

Loading…

Volgende Passages (komende 24 uur)

TLE

VersSource: CelesTrak SupGP

Epoch: Sep 15, 2026, 03:11 UTC

1 62210C 24229U   26258.13312500 -.00005832  00000+0 -21120-3 0  2584
2 62210  43.0025 280.6988 0001362 272.5426 169.1718 15.27589361    19

Volg STARLINK-32670 in realtime met AllMySat

Download on the App Store